{"data":{"norad_id":53012,"epoch":"2026-09-20T01:22:32.897280Z","epoch_age_seconds":107119,"freshness":"FRESH","line1":"1 53012U 22076AC  26263.05732520 -.00000115  00000+0  80568-5 0  9990","line2":"2 53012  53.1603 293.8429 0001010  75.4384 284.6729 15.31707313232298","mean_motion":15.31707313,"eccentricity":0.000101,"inclination_deg":53.1603,"raan_deg":293.8429,"arg_perigee_deg":75.4384,"mean_anomaly_deg":284.6729,"bstar":8.0568e-6,"rev_number":23229,"period_min":94.012739103505,"perigee_km":470.02646126516,"apogee_km":471.40993001468,"semimajor_km":6848.8551956399,"source":"CELESTRAK","updated_at":"2026-09-20T09:00:40.144138Z"}}